Stations météo

réclame
Mon MeteoGroup
Leck, Allemagne (10022): Température de l'air & dewpoint: 17.10.2018 12:00:00 - 23.10.2018 12:00:00 (CEST)Leck, Allemagne (10022): Température de l'air 5cm & Température de l'air -5cm: 17.10.2018 12:00:00 - 23.10.2018 12:00:00 (CEST)Leck, Allemagne (10022): Température de l'air -20cm & Température de l'air -100cm: 17.10.2018 12:00:00 - 23.10.2018 12:00:00 (CEST)Leck, Allemagne (10022): Vitesse du vent & gusts: 17.10.2018 12:00:00 - 23.10.2018 12:00:00 (CEST)Leck, Allemagne (10022): Direction du vent: 17.10.2018 12:00:00 - 23.10.2018 12:00:00 (CEST)Leck, Allemagne (10022): reduced air pressure: 17.10.2018 12:00:00 - 23.10.2018 12:00:00 (CEST)Leck, Allemagne (10022): visibility: 17.10.2018 12:00:00 - 23.10.2018 12:00:00 (CEST)Leck, Allemagne (10022): Ensoleillement: 17.10.2018 12:00:00 - 23.10.2018 12:00:00 (CEST)Leck, Allemagne (10022): Quantités de précipitations: 17.10.2018 12:00:00 - 23.10.2018 12:00:00 (CEST)
Date & Time tt [°C] td [°C] tt 5cm [°C] tt -5cm [°C] tt -20cm [°C] tt -100cm [°C] ff [km/h] ff [knt] fx [km/h] fx [knt] dd ppp [hPa] vv [km] sd [min] rr [mm]
23.10.2018 12:00:00 12,9 10,3 12,4 11,6 11,0 12,8 43 23 69 38 WNW 1010,1 11 0 0,1
23.10.2018 11:00:00 12,3 10,5 11,4 11,1 10,9 12,8 44 24 69 37 W 1010,2 7 0 0,2
23.10.2018 10:00:00 12,2 10,1 11,3 10,8 10,9 12,8 44 24 67 36 W 1010,4 7 0 0,0
23.10.2018 09:00:00 11,7 10,0 10,8 10,5 10,9 12,8 44 24 66 36 W 1011,4 9 0 0,0
23.10.2018 08:00:00 11,5 9,9 10,5 10,4 10,8 12,8 43 23 68 37 W 1011,9 7 0 1,5
23.10.2018 07:00:00 11,1 10,0 10,3 10,2 10,8 12,8 36 19 58 31 W 1013,2 2,6 0 2,1
23.10.2018 06:00:00 11,2 9,0 9,9 10,2 10,8 12,8 34 18 58 31 W 1014,3 4,9 0 0,4
23.10.2018 05:00:00 12,2 7,7 11,4 10,2 10,8 12,8 38 20 65 35 W 1015,1 14 0 0,0
23.10.2018 04:00:00 11,9 8,0 10,2 10,1 10,7 12,8 41 22 64 34 W 1017,3 6 0 0,0
23.10.2018 03:00:00 12,0 8,0 10,2 9,9 10,7 12,8 44 24 70 38 W 1018,8 9 0 0,0
23.10.2018 02:00:00 11,6 7,6 10,4 9,6 10,7 12,8 33 18 60 32 W 1020,6 20 0 0,0
23.10.2018 01:00:00 11,7 6,4 10,9 9,2 10,8 12,8 32 18 50 27 WSW 1022,4 22 0 0,0
23.10.2018 00:00:00 11,1 5,0 10,2 8,8 10,9 12,9 31 17 47 25 WSW 1024,4 25 0 0,0
22.10.2018 23:00:00 10,5 4,9 9,2 8,7 11,0 12,9 22 12 46 25 W 1025,6 24 0 0,0
22.10.2018 22:00:00 10,3 4,9 9,2 8,5 11,1 12,9 17 9 32 17 WSW 1026,3 26 0 0,0
22.10.2018 21:00:00 9,1 4,6 7,2 8,6 11,3 12,9 13 7 28 15 W 1027,3 27 0 0,0
22.10.2018 20:00:00 9,7 5,6 8,7 8,9 11,5 12,9 21 11 36 19 W 1028,0 25 0 0,0
22.10.2018 19:00:00 8,9 5,0 7,0 9,5 11,6 12,9 14 8 25 14 W 1028,4 25 0 0,0
22.10.2018 18:00:00 9,8 5,1 8,4 10,7 11,6 12,9 16 9 32 18 W 1029,0 25 15 0,0
22.10.2018 17:00:00 10,7 4,7 10,8 11,1 11,6 12,9 19 10 39 21 WNW 1029,2 21 45 0,0
22.10.2018 16:00:00 11,6 3,6 12,2 11,7 11,5 12,9 26 14 48 26 WNW 1029,5 11 41 0,0
22.10.2018 15:00:00 11,5 3,7 12,6 12,1 11,4 12,9 27 15 47 26 NW 1029,5 20 27 0,0
22.10.2018 14:00:00 10,9 4,1 10,0 12,2 11,3 12,9 27 14 46 25 WNW 1029,3 20 33 0,0
22.10.2018 13:00:00 10,3 4,0 9,0 11,9 11,2 12,9 29 16 46 25 WNW 1029,7 19 44 0,0
22.10.2018 12:00:00 10,9 5,2 12,3 10,7 11,2 12,9 25 13 42 23 WNW 1029,4 17 40 0,0
22.10.2018 11:00:00 11,1 4,3 11,9 10,2 11,3 12,9 21 12 34 18 NW 1028,9 10 60 0,0
22.10.2018 10:00:00 10,3 4,9 10,0 8,9 11,4 12,9 21 11 32 17 NW 1028,3 14 48 0,0
22.10.2018 09:00:00 9,2 5,5 7,5 8,4 11,7 12,9 16 9 31 17 NW 1027,8 22 0 0,0
22.10.2018 08:00:00 8,3 5,4 5,7 8,9 11,9 12,9 10 5 19 10 NW 1026,8 23 0 0,0
22.10.2018 07:00:00 9,6 7,2 7,7 9,7 12,0 12,9 16 9 22 12 NW 1026,1 26 0 0,0
22.10.2018 06:00:00 9,0 7,4 6,5 10,3 12,2 12,9 10 5 15 8 NW 1025,4 26 0 0,0
22.10.2018 05:00:00 10,7 8,6 9,8 11,2 12,3 12,9 11 6 28 15 NNW 1025,0 26 0 0,0
22.10.2018 04:00:00 11,2 9,1 10,3 11,8 12,3 12,9 19 10 32 17 NNW 1024,7 27 0 0,1
22.10.2018 03:00:00 11,6 11,0 11,2 12,2 12,3 12,9 21 12 37 20 NW 1024,1 3,9 0 0,2
22.10.2018 02:00:00 11,8 11,2 11,5 12,6 12,3 12,9 19 10 38 21 NNW 1023,7 3,0 0 0,7
22.10.2018 01:00:00 13,5 13,1 13,0 12,7 12,3 12,9 13 7 31 17 WSW 1023,0 1,7 0 0,5
22.10.2018 00:00:00 13,8 12,6 13,0 12,6 12,3 12,9 21 12 35 19 WSW 1023,0 3,8 0 0,1
21.10.2018 23:00:00 13,8 12,0 12,9 12,6 12,3 12,9 23 12 33 18 SW 1023,0 3,4 0 0,0
21.10.2018 22:00:00 13,9 11,4 13,3 12,6 12,3 12,9 17 9 30 16 SW 1023,4 4,5 0 0,0
21.10.2018 21:00:00 14,0 11,2 13,4 12,8 12,3 12,9 20 11 38 21 SW 1023,6 4,8 0 0,0
21.10.2018 20:00:00 13,9 11,3 13,4 12,9 12,3 13,0 21 12 36 20 SSW 1023,8 4,5 0 0,0
21.10.2018 19:00:00 13,9 11,7 13,5 13,1 12,3 13,0 23 12 34 18 SSW 1023,7 4,0 0 0,0
21.10.2018 18:00:00 13,9 12,0 13,6 13,4 12,2 13,0 22 12 34 18 SSW 1023,8 3,2 0 0,0
21.10.2018 17:00:00 14,1 12,4 14,0 13,8 12,0 13,0 18 10 34 19 SSW 1024,4 3,1 0 0,0
21.10.2018 16:00:00 14,2 12,5 14,3 14,0 11,9 13,0 20 11 34 19 SSW 1024,8 2,8 0 0,0
21.10.2018 15:00:00 14,4 12,9 14,8 14,2 11,6 13,0 21 12 34 18 SSW 1025,2 2,9 0 0,0
21.10.2018 14:00:00 14,6 12,8 15,2 14,0 11,4 13,0 20 11 34 18 SW 1025,5 3,2 0 0,0
21.10.2018 13:00:00 14,6 13,1 15,2 13,2 11,1 13,0 15 8 27 15 SW 1025,9 3,1 0 0,0
21.10.2018 12:00:00 14,3 12,9 14,9 12,7 11,0 13,0 13 7 21 11 SSW 1026,2 3,4 0 0,0
21.10.2018 11:00:00 14,0 12,9 14,3 11,9 10,8 13,0 14 8 21 12 SSW 1026,5 3,5 0 0,0
21.10.2018 10:00:00 12,6 12,0 12,5 10,8 10,7 13,0 10 6 14 8 S 1026,8 5 0 0,0
21.10.2018 09:00:00 11,7 10,8 11,2 10,2 10,7 13,0 10 5 13 7 S 1026,8 8 0 0,0
21.10.2018 08:00:00 11,3 9,9 10,5 9,9 10,6 13,0 6 3 10 5 SSE 1026,7 13 0 0,0
21.10.2018 07:00:00 10,8 10,0 10,1 9,6 10,6 13,0 6 3 14 8 S 1026,9 13 0 0,0
21.10.2018 06:00:00 10,1 9,7 9,6 9,1 10,7 13,0 8 4 10 6 S 1027,1 9 0 0,0
21.10.2018 05:00:00 9,2 8,8 8,5 8,6 10,7 13,1 9 5 11 6 SSW 1027,2 9 0 0,0
21.10.2018 04:00:00 8,5 8,0 5,9 8,8 10,8 13,1 8 5 12 7 S 1027,6 7 0 0,0
21.10.2018 03:00:00 9,6 9,0 8,8 8,9 10,8 13,1 10 5 16 8 S 1027,8 12 0 0,0
21.10.2018 02:00:00 9,6 8,8 8,7 8,7 10,9 13,1 6 4 13 7 S 1028,0 14 0 0,0
21.10.2018 01:00:00 7,8 7,0 6,6 8,4 11,0 13,1 5 3 7 4 S 1028,4 14 0 0,0
21.10.2018 00:00:00 7,1 6,6 6,6 8,2 11,2 13,1 3 2 4 2 SSE 1028,6 17 0 0,0
20.10.2018 23:00:00 6,1 5,6 4,5 8,1 11,4 13,1 0 0 5 3 N 1028,6 15 0 0,0
20.10.2018 22:00:00 6,3 6,1 3,5 8,3 11,7 13,1 4 2 8 5 S 1028,4 11 0 0,0
20.10.2018 21:00:00 6,5 5,7 3,7 8,7 11,9 13,1 3 2 4 2 SSW 1028,9 21 0 0,0
20.10.2018 20:00:00 7,1 5,9 3,7 9,5 12,1 13,1 3 1 6 3 W 1028,9 24 0 0,0
20.10.2018 19:00:00 9,4 7,2 5,3 10,9 12,2 13,1 6 4 14 8 WNW 1028,5 25 0 0,0
20.10.2018 18:00:00 11,5 7,4 9,9 12,3 12,2 13,1 10 6 20 11 WNW 1028,0 26 48 0,0
20.10.2018 17:00:00 12,5 7,7 12,4 13,0 12,1 13,1 14 7 32 17 NW 1027,8 25 60 0,0
20.10.2018 16:00:00 13,2 7,1 14,4 14,2 11,9 13,1 21 12 33 18 WNW 1028,5 12 54 0,0
20.10.2018 15:00:00 13,5 7,9 15,2 14,2 11,7 13,2 22 12 34 18 WNW 1028,1 13 47 0,0
20.10.2018 14:00:00 13,1 8,5 13,1 13,4 11,5 13,2 20 11 27 15 WNW 1028,0 29 16 0,0
20.10.2018 13:00:00 13,5 9,0 14,9 13,5 11,2 13,2 18 10 30 16 WNW 1027,8 20 22 0,0
20.10.2018 12:00:00 12,9 8,7 13,6 13,1 11,0 13,2 20 11 29 16 NNW 1027,6 22 29 0,0
20.10.2018 11:00:00 13,3 10,2 14,4 12,2 10,9 13,2 19 10 29 15 WNW 1027,3 18 46 0,0
20.10.2018 10:00:00 12,1 10,7 11,3 10,4 10,9 13,2 9 5 15 8 W 1026,9 14 4 0,0
20.10.2018 09:00:00 11,0 9,7 9,8 9,7 10,9 13,2 8 4 18 10 WSW 1026,5 15 0 0,0
20.10.2018 08:00:00 10,8 9,2 9,4 9,8 10,9 13,2 10 5 16 8 W 1026,3 16 0 0,0
20.10.2018 07:00:00 11,0 8,7 9,6 9,8 10,9 13,2 11 6 25 13 W 1026,0 9 0 0,0
20.10.2018 06:00:00 10,5 9,7 9,5 9,7 10,9 13,3 10 6 28 15 SW 1025,7 9 0 1,2
20.10.2018 05:00:00 11,1 8,9 9,7 9,5 10,9 13,3 20 11 29 16 WSW 1025,7 3,1 0 0,0
20.10.2018 04:00:00 10,9 7,3 10,0 9,1 11,0 13,3 14 7 18 10 SSW 1025,5 27 0 0,0
20.10.2018 03:00:00 9,3 6,2 7,3 9,0 11,1 13,3 12 6 17 9 SSW 1025,9 37 0 0,0
20.10.2018 02:00:00 9,1 6,1 7,9 9,0 11,2 13,3 8 4 14 7 SSW 1026,0 32 0 0,0
20.10.2018 01:00:00 8,5 5,8 7,6 8,9 11,3 13,3 9 5 11 6 SSW 1026,0 25 0 0,0
20.10.2018 00:00:00 7,2 4,9 5,5 8,7 11,5 13,3 4 2 9 5 S 1026,2 19 0 0,0
19.10.2018 23:00:00 6,9 4,4 4,2 9,5 11,6 13,3 3 2 8 5 S 1026,2 28 0 0,0
19.10.2018 22:00:00 9,0 5,6 7,8 10,3 11,7 13,3 0 0 4 2 N 1026,4 31 0 0,0
19.10.2018 21:00:00 10,1 5,1 7,8 10,7 11,8 13,3 4 2 10 5 W 1026,2 32 0 0,0
19.10.2018 20:00:00 10,3 5,0 9,2 11,1 11,8 13,4 7 4 10 5 W 1026,1 31 0 0,0
19.10.2018 19:00:00 11,2 3,7 9,5 11,7 11,8 13,4 6 3 15 8 W 1025,5 38 0 0,0
19.10.2018 18:00:00 11,4 4,4 10,5 12,4 11,6 13,4 7 4 11 6 WSW 1025,4 41 0 0,0
19.10.2018 17:00:00 12,0 4,0 11,9 13,2 11,4 13,4 7 4 16 9 W 1025,4 40 0 0,0
19.10.2018 16:00:00 12,1 4,0 12,5 13,7 11,1 13,4 10 5 20 11 NW 1025,7 41 0 0,0
19.10.2018 15:00:00 12,5 3,7 13,6 14,1 10,7 13,4 11 6 21 11 WSW 1026,1 45 8 0,0
19.10.2018 14:00:00 12,6 5,4 14,6 13,9 10,3 13,4 14 8 22 12 WSW 1026,5 31 19 0,0
19.10.2018 13:00:00 12,3 7,1 14,1 12,1 10,0 13,4 13 7 19 10 SW 1026,7 33 2 0,0
19.10.2018 12:00:00 11,3 6,0 12,9 10,2 9,8 13,4 7 4 11 6 SSW 1026,9 27 0 0,0
19.10.2018 11:00:00 9,8 7,5 10,0 8,4 9,7 13,4 8 4 11 6 S 1026,9 24 0 0,0
19.10.2018 10:00:00 7,4 6,3 7,5 6,8 9,7 13,4 5 3 8 4 SSW 1026,8 19 0 0,0
19.10.2018 09:00:00 4,9 4,3 4,9 5,5 9,9 13,4 5 3 7 4 S 1026,7 11 0 0,0
19.10.2018 08:00:00 1,9 1,4 1,2 4,7 10,1 13,4 3 1 5 3 SSE 1026,6 16 0 0,0
19.10.2018 07:00:00 1,0 0,6 -1,1 4,2 10,4 13,4 5 3 8 4 SW 1026,5 14 0 0,0
19.10.2018 06:00:00 1,1 0,5 -2,3 4,4 10,7 13,4 3 1 3 2 SE 1026,4 21 0 0,0
19.10.2018 05:00:00 1,2 0,6 -2,6 4,8 11,0 13,4 3 1 3 2 E 1026,6 21 0 0,0
19.10.2018 04:00:00 1,2 0,8 -2,8 5,3 11,3 13,4 1 1 4 2 ENE 1026,6 16 0 0,0
19.10.2018 03:00:00 1,8 1,2 -1,3 5,7 11,6 13,4 3 2 6 3 ESE 1026,6 19 0 0,0
19.10.2018 02:00:00 2,3 1,6 -1,6 6,3 12,0 13,4 3 2 5 3 SW 1027,0 29 0 0,0
19.10.2018 01:00:00 2,7 2,1 -0,8 6,9 12,3 13,4 4 2 6 3 W 1027,2 22 0 0,0
19.10.2018 00:00:00 4,5 3,5 0,4 7,5 12,7 13,4 6 4 8 4 NNW 1027,1 24 0 0,0
18.10.2018 23:00:00 5,3 3,4 0,6 8,3 13,0 13,4 7 4 11 6 N 1027,1 24 0 0,0
18.10.2018 22:00:00 7,1 4,7 3,0 9,2 13,3 13,4 10 5 13 7 NNW 1027,1 26 0 0,0
18.10.2018 21:00:00 7,7 4,9 4,5 10,1 13,6 13,4 11 6 18 10 N 1026,5 27 0 0,0
18.10.2018 20:00:00 8,4 5,2 5,6 11,2 13,9 13,4 11 6 16 9 NNW 1026,3 30 0 0,0
18.10.2018 19:00:00 9,3 5,2 7,0 12,5 14,0 13,4 12 7 21 11 NW 1025,8 33 0 0,0
18.10.2018 18:00:00 11,8 5,3 10,8 14,1 14,0 13,4 15 8 24 13 NNW 1025,3 38 56 0,0
18.10.2018 17:00:00 13,2 4,9 15,2 15,0 14,0 13,4 12 7 26 14 NNW 1024,9 18 59 0,0
18.10.2018 16:00:00 13,7 4,5 16,2 16,6 13,8 13,4 18 10 29 16 NNW 1025,1 22 59 0,0
18.10.2018 15:00:00 14,2 4,7 18,2 16,8 13,5 13,4 18 10 31 17 N 1024,9 13 53 0,0
18.10.2018 14:00:00 14,4 7,2 18,0 16,3 13,3 13,4 19 10 31 17 N 1024,8 23 38 0,0
18.10.2018 13:00:00 13,7 7,6 17,0 15,7 13,1 13,4 19 10 34 19 N 1025,0 19 57 0,0
18.10.2018 12:00:00 13,3 8,6 15,9 14,6 13,1 13,4 24 13 35 19 N 1024,9 10 59 0,0
18.10.2018 11:00:00 12,3 9,1 15,6 13,4 13,1 13,4 20 11 30 16 N 1024,5 12 60 0,0
18.10.2018 10:00:00 11,4 9,0 12,9 12,2 13,2 13,4 14 7 26 14 N 1023,8 17 43 0,0
18.10.2018 09:00:00 10,8 9,4 9,9 12,2 13,2 13,4 18 10 28 15 NNW 1023,2 22 0 0,0
18.10.2018 08:00:00 11,9 10,9 11,6 12,6 13,2 13,4 18 10 28 15 NNW 1022,4 11 0 0,0
18.10.2018 07:00:00 12,6 12,1 12,3 12,6 13,3 13,4 11 6 21 11 NNW 1021,4 7 0 0,1
18.10.2018 06:00:00 12,6 12,4 12,3 12,4 13,3 13,4 10 6 17 9 NW 1021,1 2,6 0 0,0
18.10.2018 05:00:00 11,8 11,7 11,6 12,2 13,4 13,4 6 3 10 5 WNW 1020,8 1,6 0 0,0
18.10.2018 04:00:00 12,2 12,1 11,7 12,4 13,5 13,4 8 4 11 6 NW 1020,7 0,1 0 0,0
18.10.2018 03:00:00 12,0 11,9 11,5 12,6 13,6 13,4 5 3 6 4 WNW 1020,6 0,1 0 0,0
18.10.2018 02:00:00 11,6 11,5 11,0 12,5 13,7 13,4 5 3 7 4 WNW 1020,6 0,1 0 0,0
18.10.2018 01:00:00 11,3 11,2 11,2 12,5 13,8 13,4 6 3 8 4 N 1020,6 0,2 0 0,0
18.10.2018 00:00:00 11,2 11,1 10,2 12,8 14,0 13,4 0 0 8 4 N 1020,3 0,1 0 0,0
17.10.2018 23:00:00 11,5 11,3 11,3 12,8 14,1 13,4 5 3 9 5 SSW 1020,4 1,2 0 0,0
17.10.2018 22:00:00 12,2 11,8 8,1 13,2 14,3 13,4 5 3 5 3 SW 1020,3 0,9 0 0,0
17.10.2018 21:00:00 13,7 12,7 10,7 14,3 14,3 13,4 3 2 9 5 W 1019,9 4,3 0 0,0
17.10.2018 20:00:00 14,4 12,9 13,5 15,1 14,4 13,4 7 4 13 7 NW 1019,6 5 0 0,0
17.10.2018 19:00:00 15,0 13,6 14,7 15,7 14,3 13,4 12 6 18 10 NW 1019,2 3,2 0 0,0
17.10.2018 18:00:00 16,1 14,1 15,2 16,6 14,2 13,4 10 5 14 7 W 1018,7 3,1 5 0,0
17.10.2018 17:00:00 17,0 13,7 18,1 16,9 13,9 13,4 9 5 11 6 WSW 1018,5 4,1 7 0,0
17.10.2018 16:00:00 17,0 13,6 17,5 17,2 13,7 13,4 9 5 14 7 WSW 1018,4 4,3 0 0,0
17.10.2018 15:00:00 16,9 13,1 17,6 17,2 13,3 13,4 13 7 16 8 SW 1018,5 4,8 0 0,0
17.10.2018 14:00:00 17,7 12,8 19,2 17,1 13,0 13,4 11 6 21 12 SSW 1018,3 6 33 0,0
17.10.2018 13:00:00 17,5 12,7 19,0 16,0 12,7 13,4 19 10 25 13 SSW 1018,3 6 54 0,0
17.10.2018 12:00:00 16,8 14,0 17,0 13,7 12,6 13,4 11 6 17 9 S 1018,3 5 0 0,0

tt = Température de l'air
td = dewpoint
tt 5cm = Température de l'air 5cm
tt -5cm = Température de l'air -5cm
tt -20cm = Température de l'air -20cm
tt -100cm = Température de l'air -100cm
ff = Vitesse du vent
fx = gusts
dd = Direction du vent
ppp = reduced air pressure
vv = visibility
sd = Ensoleillement
rr = Quantités de précipitations

stations d'obs. à proximité